Regional Weather Roundup
Issued by NWS

Home | Current Version | Previous Version | Graphics & Text | Print | Product List | Glossary On
Versions: 1 2 3 4 5 6 7 8 9 10 11 12 13 14 15 16 17 18 19 20 21 22 23 24 25 26 27 28 29 30 31 32 33 34 35 36 37 38 39 40 41 42 43 44 45 46 47 48 49 50
000
ASUS43 KMPX 271101
RWRMN
WEATHER ROUNDUP FOR MINNESOTA
NATIONAL WEATHER SERVICE TWIN CITIES/CHANHASSEN MN
600 AM CDT TUE JUN 27 2017


NOTE: "FAIR" INDICATES FEW OR NO CLOUDS BELOW 12,000 FEET WITH NO
SIGNIFICANT WEATHER AND/OR OBSTRUCTIONS TO VISIBILITY. N/A MEANS
CURRENT SKY AND/OR WEATHER CONDITIONS ARE NOT AVAILABLE.

MNZ060>063-068>070-271200-
   Twin Cities Metro

CITY           SKY/WX    TMP DP  RH WIND       PRES   REMARKS
TWIN CITIES    CLEAR     55  45  68 S3        30.09S
ST PAUL        CLEAR     51  50  96 CALM      30.10S
CRYSTAL        CLEAR     47  44  90 CALM      30.08S
BLAINE         CLEAR     50  48  93 CALM      30.08S
LAKEVILLE      CLEAR     48  45  87 CALM      30.10S
EDEN PRAIRIE   CLEAR     51  46  83 SW3       30.09R
SOUTH ST PAUL  CLEAR     51  46  83 CALM      30.10R
LAKE ELMO      FAIR      46  46 100 CALM      30.10R
$$
MNZ001>005-007-008-013>017-022>024-027-028-271200-
   Northwest Minnesota

CITY           SKY/WX    TMP DP  RH WIND       PRES   REMARKS
BEMIDJI        PTCLDY    47  41  78 S3        30.02S
HALLOCK        CLOUDY    45  43  93 S7        29.92S
ROSEAU         CLEAR     46  43  87 S8        29.95F
WARROAD        CLEAR     48  43  81 SW6       29.96S
CROOKSTON      CLOUDY    46  43  87 S7        29.98S
FOSSTON        PTCLDY    45  39  81 S7        30.01S
DETROIT LAKES  CLEAR     55  43  62 SW8       30.04R
MOORHEAD       CLEAR     48  43  81 S8        30.01S
PARK RAPIDS    CLEAR     48  41  76 S3        30.03F
MAHNOMEN       FAIR      50  42  74 S8        30.01R
$$
MNZ006-009>011-018-025>026-271200-
   North Central Minnesota

CITY           SKY/WX    TMP DP  RH WIND       PRES   REMARKS
BAUDETTE       PTCLDY    47  42  83 CALM      29.97S
FLAG ISLAND    PTCLDY    55  48  76 SW6       29.94R
INTL FALLS     CLEAR     43  41  93 CALM      29.98F
WASKISH        CLEAR     46  43  87 S3        30.00S
BIG FORK       CLEAR     39  37  93 CALM      30.02S
LONGVILLE      CLEAR     41  41 100 CALM      30.03F
GRAND RAPIDS   CLEAR     49  42  77 S3        30.05S
CRANE LAKE     CLEAR     37  37 100 CALM      30.01S
ORR            CLEAR     45  41  87 CALM      29.99S
COOK           CLEAR     41  39  93 CALM      30.02S
WALKER         FAIR      47  41  78 SW5       30.03S
$$
MNZ012-019>021-037-271200-
   Northeast Minnesota

CITY           SKY/WX    TMP DP  RH WIND       PRES   REMARKS
DULUTH         CLEAR     47  43  86 CALM      30.04R
ELY            CLEAR     46  45  93 CALM      30.01F
HIBBING        CLEAR     38  38 100 CALM      30.03S
EVELETH        CLEAR     42  40  91 CALM      30.03S
DULUTH HARBOR  CLEAR     50  46  87 SW8       30.04R
TWO HARBORS    CLEAR     54  46  76 NW6       30.01S
SILVER BAY     CLEAR     43  41  93 CALM      30.01R
GRAND MARAIS     N/A     47  46  97 CALM      29.99R
G MARAIS ARPRT CLEAR     43  39  87 CALM      30.00F
$$
MNZ029>031-032-039>041-046>048-054>057-064-271200-
   West Central Minnesota

CITY           SKY/WX    TMP DP  RH WIND       PRES   REMARKS
FERGUS FALLS   CLEAR     52  43  71 S9        30.02S
WHEATON        CLEAR     54  41  62 S8        30.05S
MORRIS         CLEAR     48  43  81 S5        30.05S
ALEXANDRIA     CLEAR     50  42  74 S7        30.07S
ELBOW LAKE     FAIR      47  43  85 S8        30.05S
WADENA         CLEAR     45  39  81 CALM      30.04S
GLENWOOD       CLEAR     48  43  81 SW3       30.07S
APPLETON       CLEAR     54  43  66 S5        30.06S
BENSON         CLEAR     46  41  81 S5        30.08S
ORTONVILLE     CLEAR     50  41  71 S5        30.05S
MADISON        CLEAR     48  45  87 S5        30.07S
WILLMAR        FAIR      50  43  76 CALM      30.09S
$$
MNZ033>034-036-042>043-049>051-058-059-271200-
   Central Minnesota

CITY           SKY/WX    TMP DP  RH WIND       PRES   REMARKS
ST CLOUD       CLEAR     42  41  96 CALM      30.07F
SAUK CENTRE    FAIR      46  40  80 CALM      30.07S
PAYNESVILLE    CLEAR     42  42 100 CALM      30.08F
AITKIN           N/A     39  37  93 CALM      30.04S FOG
PINE RIVER     CLEAR     39  39 100 CALM      30.08S
BRAINERD       CLEAR     41  40  96 S3        30.06S
STAPLES        CLEAR     45  41  87 S3        30.05S
LONG PRAIRIE   FAIR      45  43  93 S5        30.07S
LITTLE FALLS   CLEAR     41  37  87 CALM      30.06F FOG
LITCHFIELD     CLEAR     52  45  76 CALM      30.09S
BUFFALO        CLEAR     48  45  88 CALM      30.09S
MAPLE LAKE     CLEAR     47  46  97 CALM      30.09S
HUTCHINSON     CLOUDY    46  45  96 CALM      30.10S
$$
MNZ037-044-045-052-053-271200-
   East Central Minnesota

CITY           SKY/WX    TMP DP  RH WIND       PRES   REMARKS
PRINCETON      CLEAR     43  43 100 CALM      30.07F
MORA           CLEAR     43  43 100 CALM      30.08S
CAMBRIDGE      CLEAR     46  39  76 CALM      30.06S
RUSH CITY      PTCLDY    45  43  93 CALM      30.07S
MOOSE LAKE     CLEAR     41  37  87 CALM      30.04S
HINCKLEY       FAIR      43  43 100 CALM      30.07R
CLOQUET        CLEAR     48  41  76 W6        30.04S
MCGREGOR       CLEAR     45  43  93 CALM      30.05S
$$
MNZ071>073-080-081-089-090-097-098-271200-
   Southwest Minnesota

CITY           SKY/WX    TMP DP  RH WIND       PRES   REMARKS
MONTEVIDEO     CLEAR     48  43  81 SW6       30.07F
GRANITE FALLS  CLEAR     47  43  86 S8        30.09F
CANBY          CLEAR     55  41  59 CALM      30.08S
MARSHALL       CLEAR     50  42  74 S8        30.09S
REDWOOD FALLS  CLEAR     50  41  71 S6        30.09F
OLIVIA         CLEAR     50  41  71 S5        30.08S
PIPESTONE      CLEAR     52  41  66 S5        30.09F
WINDOM         CLEAR     52  43  71 S3        30.11F
WORTHINGTON    CLEAR     49  41  74 S7        30.12S
JACKSON        CLEAR     50  41  71 CALM      30.12F
TRACY          CLEAR     54  42  65 S9        30.10S
SLAYTON        CLEAR     47  40  76 S6        30.11F
$$
MNZ065>067-074>077-082>085-091>093-271200-
   South Central Minnesota

CITY           SKY/WX    TMP DP  RH WIND       PRES   REMARKS
MANKATO        CLEAR     50  43  77 S3        30.12S
NEW ULM        CLEAR     46  41  81 CALM      30.10F
ST JAMES       CLEAR     48  43  81 S5        30.12F
FAIRMONT       CLEAR     47  43  86 S6        30.12F
GLENCOE        CLEAR     49  46  91 S5        30.09F
FARIBAULT      PTCLDY    48  45  87 CALM      30.12R
OWATONNA       CLEAR     50  43  76 SW3       30.12S
WASECA         CLEAR     45  41  87 CALM      30.13S
ALBERT LEA     CLEAR     48  46  93 CALM      30.14R
$$
MNZ078>079-086>088-094>096-271200-
   Southeast Minnesota

CITY           SKY/WX    TMP DP  RH WIND       PRES   REMARKS
ROCHESTER      CLEAR     48  44  86 SW8       30.13R
RED WING       CLEAR     46  45  93 CALM      30.10R
STANTON        CLEAR     51  45  79 S6        30.10S
DODGE CENTER   CLEAR     48  43  81 SW6       30.13R
WINONA         CLEAR     48  46  93 CALM      30.12S
AUSTIN         CLEAR     46  43  87 CALM      30.13R
PRESTON        CLEAR     49  43  78 SW8       30.13S
$$
ABBREVIATIONS USED IN REMARKS
   TC - TEMPERATURES IN CELSIUS
  WCI - WIND CHILL INDEX
   HX - HEAT INDEX
  VSB - VISIBILITY
$$




USA.gov is the U.S. government's official web portal to all federal, state and local government web resources and services.